Time,TemperatureF,DewpointF,PressureIn,WindDirection,WindDirectionDegrees,WindSpeedMPH,WindSpeedGustMPH,Humidity,HourlyPrecipIn,Conditions,Clouds,dailyrainin,SoftwareType,DateUTC
2014-01-12 00:00:00,47.1,-11.2,29.12,North,0,0.0,0.0,8,0.00,,---,0.00,VWS V14.01,2014-01-12 05:00:00,
2014-01-12 00:01:00,47.3,-11.1,29.12,North,0,0.0,0.0,8,0.00,,---,0.00,VWS V14.01,2014-01-12 05:01:00,
2014-01-12 00:02:00,47.3,-11.1,29.12,North,0,0.0,0.0,8,0.00,,---,0.00,VWS V14.01,2014-01-12 05:02:00,
2014-01-12 00:03:00,47.3,-11.1,29.12,North,0,0.0,0.0,8,0.00,,---,0.00,VWS V14.01,2014-01-12 05:03:00,
2014-01-12 00:04:00,47.1,-11.2,29.12,North,0,0.0,0.0,8,0.00,,---,0.00,VWS V14.01,2014-01-12 05:04:00,
2014-01-12 00:08:00,47.5,-10.9,29.12,North,0,0.0,0.0,8,0.00,,---,0.00,VWS V14.01,2014-01-12 05:08:00,
2014-01-12 00:14:00,48.0,-10.5,29.12,North,0,0.0,0.0,8,0.00,,---,0.00,VWS V14.01,2014-01-12 05:14:00,
2014-01-12 00:19:00,48.2,1.2,29.12,North,0,0.0,0.0,14,0.00,,---,0.00,VWS V14.01,2014-01-12 05:19:00,
2014-01-12 00:25:00,48.2,1.2,29.12,North,0,0.0,0.0,14,0.00,,---,0.00,VWS V14.01,2014-01-12 05:25:00,
2014-01-12 00:30:00,48.0,1.1,29.12,North,0,0.0,0.0,14,0.00,,---,0.00,VWS V14.01,2014-01-12 05:30:00,
2014-01-12 00:36:00,48.4,-10.2,29.15,North,0,0.0,0.0,8,0.00,,---,0.00,VWS V14.01,2014-01-12 05:36:00,
2014-01-12 00:41:00,48.0,-10.5,29.15,North,0,0.0,0.0,8,0.00,,---,0.00,VWS V14.01,2014-01-12 05:41:00,
2014-01-12 00:46:00,47.8,-10.6,29.15,North,0,0.0,0.0,8,0.00,,---,0.00,VWS V14.01,2014-01-12 05:46:00,
2014-01-12 00:52:00,47.5,-10.9,29.15,North,0,0.0,0.0,8,0.00,,---,0.00,VWS V14.01,2014-01-12 05:52:00,
2014-01-12 00:57:00,47.3,-8.7,29.15,North,0,0.0,0.0,9,0.00,,---,0.00,VWS V14.01,2014-01-12 05:57:00,
2014-01-12 01:03:00,47.7,-8.4,29.15,North,0,0.0,0.0,9,0.00,,---,0.00,VWS V14.01,2014-01-12 06:03:00,
2014-01-12 01:07:00,47.5,-8.5,29.15,North,0,0.0,0.0,9,0.00,,---,0.00,VWS V14.01,2014-01-12 06:07:00,
2014-01-12 01:13:00,47.1,-8.8,29.15,North,0,0.0,0.0,9,0.00,,---,0.00,VWS V14.01,2014-01-12 06:13:00,
2014-01-12 01:19:00,46.8,-9.1,29.15,North,0,0.0,0.0,9,0.00,,---,0.00,VWS V14.01,2014-01-12 06:19:00,
2014-01-12 01:24:00,46.4,-9.4,29.18,North,0,0.0,0.0,9,0.00,,---,0.00,VWS V14.01,2014-01-12 06:24:00,
2014-01-12 01:30:00,46.4,-9.4,29.18,North,0,0.0,0.0,9,0.00,,---,0.00,VWS V14.01,2014-01-12 06:30:00,
2014-01-12 01:35:00,46.2,-7.4,29.18,North,0,0.0,0.0,10,0.00,,---,0.00,VWS V14.01,2014-01-12 06:35:00,
2014-01-12 01:41:00,45.7,-7.8,29.18,North,0,0.0,0.0,10,0.00,,---,0.00,VWS V14.01,2014-01-12 06:41:00,
2014-01-12 01:46:00,45.1,-8.2,29.18,North,0,0.0,0.0,10,0.00,,---,0.00,VWS V14.01,2014-01-12 06:46:00,
2014-01-12 01:51:00,44.8,-8.5,29.18,North,0,0.0,0.0,10,0.00,,---,0.00,VWS V14.01,2014-01-12 06:51:00,
2014-01-12 01:56:00,44.2,-8.9,29.21,North,0,0.0,0.0,10,0.00,,---,0.00,VWS V14.01,2014-01-12 06:56:00,
2014-01-12 02:02:00,43.9,-9.2,29.21,North,0,0.0,0.0,10,0.00,,---,0.00,VWS V14.01,2014-01-12 07:02:00,
2014-01-12 02:07:00,43.3,-9.6,29.21,North,0,0.0,0.0,10,0.00,,---,0.00,VWS V14.01,2014-01-12 07:07:00,
2014-01-12 02:13:00,43.2,-9.7,29.21,North,0,0.0,0.0,10,0.00,,---,0.00,VWS V14.01,2014-01-12 07:13:00,
2014-01-12 02:19:00,43.2,-9.7,29.21,North,0,0.0,0.0,10,0.00,,---,0.00,VWS V14.01,2014-01-12 07:19:00,
2014-01-12 02:24:00,43.0,-9.9,29.23,North,0,0.0,0.0,10,0.00,,---,0.00,VWS V14.01,2014-01-12 07:24:00,
2014-01-12 02:30:00,42.8,-10.0,29.23,North,0,0.0,0.0,10,0.00,,---,0.00,VWS V14.01,2014-01-12 07:30:00,
2014-01-12 02:35:00,42.4,-8.4,29.23,North,0,0.0,0.0,11,0.00,,---,0.00,VWS V14.01,2014-01-12 07:35:00,
2014-01-12 02:41:00,42.4,-8.4,29.23,North,0,0.0,0.0,11,0.00,,---,0.00,VWS V14.01,2014-01-12 07:41:00,
2014-01-12 02:46:00,42.3,-8.5,29.23,North,0,0.0,0.0,11,0.00,,---,0.00,VWS V14.01,2014-01-12 07:46:00,
2014-01-12 02:52:00,41.9,-8.8,29.23,North,0,0.0,0.0,11,0.00,,---,0.00,VWS V14.01,2014-01-12 07:52:00,
2014-01-12 02:57:00,41.9,-8.8,29.23,North,0,0.0,0.0,11,0.00,,---,0.00,VWS V14.01,2014-01-12 07:57:00,
2014-01-12 03:03:00,41.7,-8.9,29.23,North,0,0.0,0.0,11,0.00,,---,0.00,VWS V14.01,2014-01-12 08:03:00,
2014-01-12 03:08:00,41.7,-8.9,29.23,North,0,0.0,0.0,11,0.00,,---,0.00,VWS V14.01,2014-01-12 08:08:00,
2014-01-12 03:13:00,41.5,-9.1,29.23,North,0,0.0,0.0,11,0.00,,---,0.00,VWS V14.01,2014-01-12 08:13:00,
2014-01-12 03:18:00,41.4,-9.2,29.23,North,0,0.0,0.0,11,0.00,,---,0.00,VWS V14.01,2014-01-12 08:18:00,
2014-01-12 03:24:00,41.2,-9.3,29.23,North,0,0.0,0.0,11,0.00,,---,0.00,VWS V14.01,2014-01-12 08:24:00,
2014-01-12 03:29:00,41.2,-9.3,29.23,North,0,0.0,0.0,11,0.00,,---,0.00,VWS V14.01,2014-01-12 08:29:00,
2014-01-12 03:35:00,40.8,-9.6,29.23,North,0,0.0,0.0,11,0.00,,---,0.00,VWS V14.01,2014-01-12 08:35:00,
2014-01-12 03:41:00,40.6,-9.8,29.23,North,0,0.0,0.0,11,0.00,,---,0.00,VWS V14.01,2014-01-12 08:41:00,
2014-01-12 03:46:00,40.5,-9.9,29.23,North,0,0.0,0.0,11,0.00,,---,0.00,VWS V14.01,2014-01-12 08:46:00,
2014-01-12 03:51:00,40.5,-9.9,29.23,North,0,0.0,0.0,11,0.00,,---,0.00,VWS V14.01,2014-01-12 08:51:00,
2014-01-12 03:57:00,40.6,-9.8,29.23,North,0,0.0,0.0,11,0.00,,---,0.00,VWS V14.01,2014-01-12 08:57:00,
2014-01-12 04:02:00,40.8,-6.2,29.23,North,0,0.0,0.0,13,0.00,,---,0.00,VWS V14.01,2014-01-12 09:02:00,
2014-01-12 04:08:00,41.0,-6.1,29.23,North,0,0.0,0.0,13,0.00,,---,0.00,VWS V14.01,2014-01-12 09:08:00,
2014-01-12 04:13:00,41.0,-6.1,29.23,North,0,0.0,0.0,13,0.00,,---,0.00,VWS V14.01,2014-01-12 09:13:00,
2014-01-12 04:18:00,40.8,-6.2,29.23,North,0,0.0,0.0,13,0.00,,---,0.00,VWS V14.01,2014-01-12 09:18:00,
2014-01-12 04:23:00,40.8,-6.2,29.23,North,0,0.0,0.0,13,0.00,,---,0.00,VWS V14.01,2014-01-12 09:23:00,
2014-01-12 04:29:00,40.6,-6.4,29.23,North,0,0.0,0.0,13,0.00,,---,0.00,VWS V14.01,2014-01-12 09:29:00,
2014-01-12 04:34:00,40.8,-6.2,29.23,North,0,0.0,0.0,13,0.00,,---,0.00,VWS V14.01,2014-01-12 09:34:00,
2014-01-12 04:39:00,40.8,-6.2,29.26,North,0,0.0,0.0,13,0.00,,---,0.00,VWS V14.01,2014-01-12 09:39:00,
2014-01-12 04:45:00,40.6,-6.4,29.26,North,0,0.0,0.0,13,0.00,,---,0.00,VWS V14.01,2014-01-12 09:45:00,
2014-01-12 04:51:00,40.6,-6.4,29.26,North,0,0.0,0.0,13,0.00,,---,0.00,VWS V14.01,2014-01-12 09:51:00,
2014-01-12 04:57:00,40.6,-6.4,29.26,North,0,0.0,0.0,13,0.00,,---,0.00,VWS V14.01,2014-01-12 09:57:00,
2014-01-12 05:03:00,40.3,-6.7,29.26,North,0,0.0,0.0,13,0.00,,---,0.00,VWS V14.01,2014-01-12 10:03:00,
2014-01-12 05:08:00,39.9,-6.9,29.26,North,0,0.0,0.0,13,0.00,,---,0.00,VWS V14.01,2014-01-12 10:08:00,
2014-01-12 05:13:00,39.9,-6.9,29.26,North,0,0.0,0.0,13,0.00,,---,0.00,VWS V14.01,2014-01-12 10:13:00,
2014-01-12 05:18:00,39.9,-6.9,29.26,North,0,0.0,0.0,13,0.00,,---,0.00,VWS V14.01,2014-01-12 10:18:00,
2014-01-12 05:24:00,40.1,-6.8,29.26,North,0,0.0,0.0,13,0.00,,---,0.00,VWS V14.01,2014-01-12 10:24:00,
2014-01-12 05:29:00,40.6,-6.4,29.26,North,0,0.0,0.0,13,0.00,,---,0.00,VWS V14.01,2014-01-12 10:29:00,
2014-01-12 05:35:00,40.8,-6.2,29.26,North,0,0.0,0.0,13,0.00,,---,0.00,VWS V14.01,2014-01-12 10:35:00,
2014-01-12 05:40:00,40.5,-6.5,29.29,North,0,0.0,0.0,13,0.00,,---,0.00,VWS V14.01,2014-01-12 10:40:00,
2014-01-12 05:45:00,40.5,-6.5,29.29,North,0,0.0,0.0,13,0.00,,---,0.00,VWS V14.01,2014-01-12 10:45:00,
2014-01-12 05:51:00,40.5,-6.5,29.29,North,0,0.0,0.0,13,0.00,,---,0.00,VWS V14.01,2014-01-12 10:51:00,
2014-01-12 05:56:00,40.3,-6.7,29.29,North,0,0.0,0.0,13,0.00,,---,0.00,VWS V14.01,2014-01-12 10:56:00,
2014-01-12 06:01:00,40.1,-6.8,29.29,North,0,0.0,0.0,13,0.00,,---,0.00,VWS V14.01,2014-01-12 11:01:00,
2014-01-12 06:07:00,39.7,-7.1,29.32,North,0,0.0,0.0,13,0.00,,---,0.00,VWS V14.01,2014-01-12 11:07:00,
2014-01-12 06:12:00,39.6,-7.2,29.32,North,0,0.0,0.0,13,0.00,,---,0.00,VWS V14.01,2014-01-12 11:12:00,
2014-01-12 06:18:00,39.4,-7.4,29.32,North,0,0.0,0.0,13,0.00,,---,0.00,VWS V14.01,2014-01-12 11:18:00,
2014-01-12 06:23:00,39.6,-7.2,29.32,North,0,0.0,0.0,13,0.00,,---,0.00,VWS V14.01,2014-01-12 11:23:00,
2014-01-12 06:29:00,39.7,-7.1,29.32,North,0,0.0,0.0,13,0.00,,---,0.00,VWS V14.01,2014-01-12 11:29:00,
2014-01-12 06:34:00,39.7,-7.1,29.32,North,0,0.0,0.0,13,0.00,,---,0.00,VWS V14.01,2014-01-12 11:34:00,
2014-01-12 06:39:00,39.7,-7.1,29.35,North,0,0.0,0.0,13,0.00,,---,0.00,VWS V14.01,2014-01-12 11:39:00,
2014-01-12 06:45:00,39.7,-7.1,29.35,North,0,0.0,0.0,13,0.00,,---,0.00,VWS V14.01,2014-01-12 11:45:00,
2014-01-12 06:50:00,39.7,-7.1,29.35,North,0,0.0,0.0,13,0.00,,---,0.00,VWS V14.01,2014-01-12 11:50:00,
2014-01-12 06:55:00,39.7,-7.1,29.35,North,0,0.0,0.0,13,0.00,,---,0.00,VWS V14.01,2014-01-12 11:55:00,
2014-01-12 07:00:00,39.4,-7.4,29.35,North,0,0.0,0.0,13,0.00,,---,0.00,VWS V14.01,2014-01-12 12:00:00,
2014-01-12 07:06:00,39.4,-7.4,29.35,North,0,0.0,0.0,13,0.00,,---,0.00,VWS V14.01,2014-01-12 12:06:00,
2014-01-12 07:11:00,39.6,-7.2,29.35,North,0,0.0,0.0,13,0.00,,---,0.00,VWS V14.01,2014-01-12 12:11:00,
2014-01-12 07:17:00,39.9,-6.9,29.35,North,0,0.0,0.0,13,0.00,,---,0.00,VWS V14.01,2014-01-12 12:17:00,
2014-01-12 07:22:00,39.7,-7.1,29.35,North,0,0.0,0.0,13,0.00,,---,0.00,VWS V14.01,2014-01-12 12:22:00,
2014-01-12 07:27:00,39.9,-6.9,29.35,North,0,0.0,0.0,13,0.00,,---,0.00,VWS V14.01,2014-01-12 12:27:00,
2014-01-12 07:32:00,39.9,-6.9,29.35,North,0,0.0,0.0,13,0.00,,---,0.00,VWS V14.01,2014-01-12 12:32:00,
2014-01-12 07:37:00,39.7,-7.1,29.38,North,0,0.0,0.0,13,0.00,,---,0.00,VWS V14.01,2014-01-12 12:37:00,
2014-01-12 07:42:00,39.7,-7.1,29.38,North,0,0.0,0.0,13,0.00,,---,0.00,VWS V14.01,2014-01-12 12:42:00,
2014-01-12 07:47:00,39.7,-7.1,29.38,North,0,0.0,0.0,13,0.00,,---,0.00,VWS V14.01,2014-01-12 12:47:00,
2014-01-12 07:53:00,39.7,-7.1,29.41,North,0,0.0,0.0,13,0.00,,---,0.00,VWS V14.01,2014-01-12 12:53:00,
2014-01-12 07:58:00,39.9,-6.9,29.41,North,0,0.0,0.0,13,0.00,,---,0.00,VWS V14.01,2014-01-12 12:58:00,
2014-01-12 08:04:00,40.1,-6.8,29.41,North,0,0.0,0.0,13,0.00,,---,0.00,VWS V14.01,2014-01-12 13:04:00,
2014-01-12 08:09:00,40.1,-6.8,29.41,North,0,0.0,0.0,13,0.00,,---,0.00,VWS V14.01,2014-01-12 13:09:00,
2014-01-12 08:15:00,40.3,-6.7,29.41,North,0,0.0,0.0,13,0.00,,---,0.00,VWS V14.01,2014-01-12 13:15:00,
2014-01-12 08:20:00,40.3,-6.7,29.41,North,0,0.0,0.0,13,0.00,,---,0.00,VWS V14.01,2014-01-12 13:20:00,
2014-01-12 08:25:00,40.3,-6.7,29.41,North,0,0.0,0.0,13,0.00,,---,0.00,VWS V14.01,2014-01-12 13:25:00,
2014-01-12 08:30:00,40.5,-6.5,29.41,North,0,0.0,0.0,13,0.00,,---,0.00,VWS V14.01,2014-01-12 13:30:00,
2014-01-12 08:35:00,40.5,-6.5,29.41,North,0,0.0,0.0,13,0.00,,---,0.00,VWS V14.01,2014-01-12 13:35:00,
2014-01-12 08:41:00,40.6,-6.4,29.44,North,0,0.0,0.0,13,0.00,,---,0.00,VWS V14.01,2014-01-12 13:41:00,
2014-01-12 08:47:00,40.6,-6.4,29.44,North,0,0.0,0.0,13,0.00,,---,0.00,VWS V14.01,2014-01-12 13:47:00,
2014-01-12 08:52:00,40.6,-6.4,29.44,North,0,0.0,0.0,13,0.00,,---,0.00,VWS V14.01,2014-01-12 13:52:00,
2014-01-12 08:58:00,40.6,-6.4,29.44,North,0,0.0,0.0,13,0.00,,---,0.00,VWS V14.01,2014-01-12 13:58:00,
2014-01-12 09:04:00,40.6,-6.4,29.44,North,0,0.0,0.0,13,0.00,,---,0.00,VWS V14.01,2014-01-12 14:04:00,
2014-01-12 09:09:00,40.6,-6.4,29.47,North,0,0.0,0.0,13,0.00,,---,0.00,VWS V14.01,2014-01-12 14:09:00,
2014-01-12 09:14:00,40.6,-6.4,29.47,North,0,0.0,0.0,13,0.00,,---,0.00,VWS V14.01,2014-01-12 14:14:00,
2014-01-12 09:20:00,40.8,-6.2,29.47,North,0,0.0,0.0,13,0.00,,---,0.00,VWS V14.01,2014-01-12 14:20:00,
2014-01-12 09:25:00,41.0,-6.1,29.47,North,0,0.0,0.0,13,0.00,,---,0.00,VWS V14.01,2014-01-12 14:25:00,
2014-01-12 09:30:00,41.0,-6.1,29.47,North,0,0.0,0.0,13,0.00,,---,0.00,VWS V14.01,2014-01-12 14:30:00,
2014-01-12 09:36:00,41.0,-6.1,29.47,North,0,0.0,0.0,13,0.00,,---,0.00,VWS V14.01,2014-01-12 14:36:00,
2014-01-12 09:42:00,41.0,-6.1,29.50,North,0,0.0,0.0,13,0.00,,---,0.00,VWS V14.01,2014-01-12 14:42:00,
2014-01-12 09:47:00,41.2,-5.9,29.50,North,0,0.0,0.0,13,0.00,,---,0.00,VWS V14.01,2014-01-12 14:47:00,
2014-01-12 09:52:00,41.4,-5.8,29.50,North,0,0.0,0.0,13,0.00,,---,0.00,VWS V14.01,2014-01-12 14:52:00,
2014-01-12 09:57:00,41.5,-5.6,29.50,North,0,0.0,0.0,13,0.00,,---,0.00,VWS V14.01,2014-01-12 14:57:00,
2014-01-12 10:03:00,41.5,-5.6,29.50,North,0,0.0,0.0,13,0.00,,---,0.00,VWS V14.01,2014-01-12 15:03:00,
2014-01-12 10:08:00,41.7,-5.5,29.50,North,0,0.0,0.0,13,0.00,,---,0.00,VWS V14.01,2014-01-12 15:08:00,
2014-01-12 10:14:00,41.9,-5.3,29.50,North,0,0.0,0.0,13,0.00,,---,0.00,VWS V14.01,2014-01-12 15:14:00,
2014-01-12 10:20:00,42.1,-5.2,29.50,North,0,0.0,0.0,13,0.00,,---,0.00,VWS V14.01,2014-01-12 15:20:00,
2014-01-12 10:26:00,42.1,-5.2,29.50,North,0,0.0,0.0,13,0.00,,---,0.00,VWS V14.01,2014-01-12 15:26:00,
2014-01-12 10:32:00,42.1,-5.2,29.50,North,0,0.0,0.0,13,0.00,,---,0.00,VWS V14.01,2014-01-12 15:32:00,
2014-01-12 10:37:00,42.3,-5.1,29.50,North,0,0.0,0.0,13,0.00,,---,0.00,VWS V14.01,2014-01-12 15:37:00,
2014-01-12 10:42:00,42.3,-5.1,29.50,North,0,0.0,0.0,13,0.00,,---,0.00,VWS V14.01,2014-01-12 15:42:00,
2014-01-12 10:47:00,42.3,-5.1,29.50,North,0,0.0,0.0,13,0.00,,---,0.00,VWS V14.01,2014-01-12 15:47:00,
2014-01-12 10:52:00,42.4,-4.9,29.50,North,0,0.0,0.0,13,0.00,,---,0.00,VWS V14.01,2014-01-12 15:52:00,
2014-01-12 10:57:00,42.6,-4.8,29.50,North,0,0.0,0.0,13,0.00,,---,0.00,VWS V14.01,2014-01-12 15:57:00,
2014-01-12 11:02:00,42.8,-4.6,29.50,North,0,0.0,0.0,13,0.00,,---,0.00,VWS V14.01,2014-01-12 16:02:00,
2014-01-12 11:07:00,43.0,-4.5,29.53,North,0,0.0,0.0,13,0.00,,---,0.00,VWS V14.01,2014-01-12 16:07:00,
2014-01-12 11:13:00,43.3,-4.2,29.53,North,0,0.0,0.0,13,0.00,,---,0.00,VWS V14.01,2014-01-12 16:13:00,
2014-01-12 11:19:00,43.9,-3.8,29.53,North,0,0.0,0.0,13,0.00,,---,0.00,VWS V14.01,2014-01-12 16:19:00,
2014-01-12 11:25:00,44.4,-3.3,29.53,North,0,0.0,0.0,13,0.00,,---,0.00,VWS V14.01,2014-01-12 16:25:00,
2014-01-12 11:30:00,44.8,-4.7,29.53,North,0,0.0,0.0,12,0.00,,---,0.00,VWS V14.01,2014-01-12 16:30:00,
2014-01-12 11:35:00,45.1,-4.4,29.53,North,0,0.0,0.0,12,0.00,,---,0.00,VWS V14.01,2014-01-12 16:35:00,
2014-01-12 11:40:00,45.1,-4.4,29.50,North,0,0.0,0.0,12,0.00,,---,0.00,VWS V14.01,2014-01-12 16:40:00,
2014-01-12 11:45:00,45.3,-4.3,29.50,North,0,0.0,0.0,12,0.00,,---,0.00,VWS V14.01,2014-01-12 16:45:00,
2014-01-12 11:50:00,45.1,-4.4,29.50,North,0,0.0,0.0,12,0.00,,---,0.00,VWS V14.01,2014-01-12 16:50:00,
2014-01-12 11:56:00,45.0,-4.6,29.50,North,0,0.0,0.0,12,0.00,,---,0.00,VWS V14.01,2014-01-12 16:56:00,
2014-01-12 12:02:00,45.0,-4.6,29.50,North,0,0.0,0.0,12,0.00,,---,0.00,VWS V14.01,2014-01-12 17:02:00,
2014-01-12 12:08:00,45.0,-4.6,29.50,North,0,0.0,0.0,12,0.00,,---,0.00,VWS V14.01,2014-01-12 17:08:00,
2014-01-12 12:13:00,45.1,-4.4,29.50,North,0,0.0,0.0,12,0.00,,---,0.00,VWS V14.01,2014-01-12 17:13:00,
2014-01-12 12:18:00,45.0,-4.6,29.50,North,0,0.0,0.0,12,0.00,,---,0.00,VWS V14.01,2014-01-12 17:18:00,
2014-01-12 12:23:00,44.8,-4.7,29.50,North,0,0.0,0.0,12,0.00,,---,0.00,VWS V14.01,2014-01-12 17:23:00,
2014-01-12 12:28:00,45.0,-4.6,29.50,North,0,0.0,0.0,12,0.00,,---,0.00,VWS V14.01,2014-01-12 17:28:00,
2014-01-12 12:33:00,45.5,-4.2,29.50,North,0,0.0,0.0,12,0.00,,---,0.00,VWS V14.01,2014-01-12 17:33:00,
2014-01-12 12:38:00,45.5,-4.2,29.50,North,0,0.0,0.0,12,0.00,,---,0.00,VWS V14.01,2014-01-12 17:38:00,
2014-01-12 12:43:00,45.5,-4.2,29.50,North,0,0.0,0.0,12,0.00,,---,0.00,VWS V14.01,2014-01-12 17:43:00,
2014-01-12 12:48:00,45.9,-3.9,29.50,North,0,0.0,0.0,12,0.00,,---,0.00,VWS V14.01,2014-01-12 17:48:00,
2014-01-12 12:54:00,46.0,-3.7,29.50,North,0,0.0,0.0,12,0.00,,---,0.00,VWS V14.01,2014-01-12 17:54:00,
2014-01-12 13:00:00,46.0,-3.7,29.50,North,0,0.0,0.0,12,0.00,,---,0.00,VWS V14.01,2014-01-12 18:00:00,
2014-01-12 13:05:00,46.2,-3.6,29.50,North,0,0.0,0.0,12,0.00,,---,0.00,VWS V14.01,2014-01-12 18:05:00,
2014-01-12 13:11:00,46.2,-3.6,29.53,North,0,0.0,0.0,12,0.00,,---,0.00,VWS V14.01,2014-01-12 18:11:00,
2014-01-12 13:16:00,46.0,-3.7,29.53,North,0,0.0,0.0,12,0.00,,---,0.00,VWS V14.01,2014-01-12 18:16:00,
2014-01-12 13:22:00,46.2,-3.6,29.53,North,0,0.0,0.0,12,0.00,,---,0.00,VWS V14.01,2014-01-12 18:22:00,
2014-01-12 13:28:00,46.0,-3.7,29.53,North,0,0.0,0.0,12,0.00,,---,0.00,VWS V14.01,2014-01-12 18:28:00,
2014-01-12 13:33:00,46.0,-3.7,29.53,North,0,0.0,0.0,12,0.00,,---,0.00,VWS V14.01,2014-01-12 18:33:00,
2014-01-12 13:39:00,46.0,-3.7,29.53,North,0,0.0,0.0,12,0.00,,---,0.00,VWS V14.01,2014-01-12 18:39:00,
2014-01-12 13:44:00,46.2,-3.6,29.53,North,0,0.0,0.0,12,0.00,,---,0.00,VWS V14.01,2014-01-12 18:44:00,
2014-01-12 13:49:00,46.2,-3.6,29.53,North,0,0.0,0.0,12,0.00,,---,0.00,VWS V14.01,2014-01-12 18:49:00,
2014-01-12 13:54:00,46.2,-3.6,29.53,North,0,0.0,0.0,12,0.00,,---,0.00,VWS V14.01,2014-01-12 18:54:00,
2014-01-12 13:59:00,46.4,-3.4,29.53,North,0,0.0,0.0,12,0.00,,---,0.00,VWS V14.01,2014-01-12 18:59:00,
2014-01-12 14:04:00,46.0,-3.7,29.53,North,0,0.0,0.0,12,0.00,,---,0.00,VWS V14.01,2014-01-12 19:04:00,
2014-01-12 14:10:00,46.0,-3.7,29.53,North,0,0.0,0.0,12,0.00,,---,0.00,VWS V14.01,2014-01-12 19:10:00,
2014-01-12 14:16:00,46.2,-3.6,29.53,North,0,0.0,0.0,12,0.00,,---,0.00,VWS V14.01,2014-01-12 19:16:00,
2014-01-12 14:21:00,46.4,-3.4,29.53,North,0,0.0,0.0,12,0.00,,---,0.00,VWS V14.01,2014-01-12 19:21:00,
2014-01-12 14:27:00,46.6,-3.3,29.53,North,0,0.0,0.0,12,0.00,,---,0.00,VWS V14.01,2014-01-12 19:27:00,
2014-01-12 14:32:00,46.6,-3.3,29.53,North,0,0.0,0.0,12,0.00,,---,0.00,VWS V14.01,2014-01-12 19:32:00,
2014-01-12 14:37:00,46.8,-3.2,29.56,North,0,0.0,0.0,12,0.00,,---,0.00,VWS V14.01,2014-01-12 19:37:00,
2014-01-12 14:42:00,46.8,-3.2,29.56,North,0,0.0,0.0,12,0.00,,---,0.00,VWS V14.01,2014-01-12 19:42:00,
2014-01-12 14:47:00,46.8,-3.2,29.56,North,0,0.0,0.0,12,0.00,,---,0.00,VWS V14.01,2014-01-12 19:47:00,
2014-01-12 14:52:00,46.8,-3.2,29.56,North,0,0.0,0.0,12,0.00,,---,0.00,VWS V14.01,2014-01-12 19:52:00,
2014-01-12 14:58:00,46.8,-3.2,29.56,North,0,0.0,0.0,12,0.00,,---,0.00,VWS V14.01,2014-01-12 19:58:00,
2014-01-12 15:03:00,46.8,-3.2,29.56,North,0,0.0,0.0,12,0.00,,---,0.00,VWS V14.01,2014-01-12 20:03:00,
2014-01-12 15:09:00,46.9,-3.0,29.56,North,0,0.0,0.0,12,0.00,,---,0.00,VWS V14.01,2014-01-12 20:09:00,
2014-01-12 15:14:00,46.9,-3.0,29.56,North,0,0.0,0.0,12,0.00,,---,0.00,VWS V14.01,2014-01-12 20:14:00,
2014-01-12 15:20:00,46.8,-3.2,29.56,North,0,0.0,0.0,12,0.00,,---,0.00,VWS V14.01,2014-01-12 20:20:00,
2014-01-12 15:25:00,46.6,-3.3,29.59,North,0,0.0,0.0,12,0.00,,---,0.00,VWS V14.01,2014-01-12 20:25:00,
2014-01-12 15:30:00,46.6,-3.3,29.59,North,0,0.0,0.0,12,0.00,,---,0.00,VWS V14.01,2014-01-12 20:30:00,
2014-01-12 15:36:00,46.6,-3.3,29.59,North,0,0.0,0.0,12,0.00,,---,0.00,VWS V14.01,2014-01-12 20:36:00,
2014-01-12 15:41:00,46.4,-3.4,29.59,North,0,0.0,0.0,12,0.00,,---,0.00,VWS V14.01,2014-01-12 20:41:00,
2014-01-12 15:46:00,46.4,-3.4,29.59,North,0,0.0,0.0,12,0.00,,---,0.00,VWS V14.01,2014-01-12 20:46:00,
2014-01-12 15:51:00,46.2,-3.6,29.59,North,0,0.0,0.0,12,0.00,,---,0.00,VWS V14.01,2014-01-12 20:51:00,
2014-01-12 15:57:00,46.0,-3.7,29.59,North,0,0.0,0.0,12,0.00,,---,0.00,VWS V14.01,2014-01-12 20:57:00,
2014-01-12 16:03:00,46.0,-3.7,29.59,North,0,0.0,0.0,12,0.00,,---,0.00,VWS V14.01,2014-01-12 21:03:00,
2014-01-12 16:09:00,46.0,-3.7,29.59,North,0,0.0,0.0,12,0.00,,---,0.00,VWS V14.01,2014-01-12 21:09:00,
2014-01-12 16:15:00,45.9,-3.9,29.59,North,0,0.0,0.0,12,0.00,,---,0.00,VWS V14.01,2014-01-12 21:15:00,
2014-01-12 16:20:00,45.5,-4.2,29.59,North,0,0.0,0.0,12,0.00,,---,0.00,VWS V14.01,2014-01-12 21:20:00,
2014-01-12 16:25:00,45.5,-4.2,29.59,North,0,0.0,0.0,12,0.00,,---,0.00,VWS V14.01,2014-01-12 21:25:00,
2014-01-12 16:30:00,45.5,-4.2,29.59,North,0,0.0,0.0,12,0.00,,---,0.00,VWS V14.01,2014-01-12 21:30:00,
2014-01-12 16:36:00,45.3,-4.3,29.59,North,0,0.0,0.0,12,0.00,,---,0.00,VWS V14.01,2014-01-12 21:36:00,
2014-01-12 16:41:00,45.3,-4.3,29.59,North,0,0.0,0.0,12,0.00,,---,0.00,VWS V14.01,2014-01-12 21:41:00,
2014-01-12 16:46:00,45.0,-4.6,29.59,North,0,0.0,0.0,12,0.00,,---,0.00,VWS V14.01,2014-01-12 21:46:00,
2014-01-12 16:51:00,44.6,-4.9,29.59,North,0,0.0,0.0,12,0.00,,---,0.00,VWS V14.01,2014-01-12 21:51:00,
2014-01-12 16:56:00,44.6,-4.9,29.59,North,0,0.0,0.0,12,0.00,,---,0.00,VWS V14.01,2014-01-12 21:56:00,
2014-01-12 17:02:00,44.6,-4.9,29.59,North,0,0.0,0.0,12,0.00,,---,0.00,VWS V14.01,2014-01-12 22:02:00,
2014-01-12 17:08:00,44.1,-3.6,29.62,North,0,0.0,0.0,13,0.00,,---,0.00,VWS V14.01,2014-01-12 22:08:00,
2014-01-12 17:13:00,43.9,-3.8,29.62,North,0,0.0,0.0,13,0.00,,---,0.00,VWS V14.01,2014-01-12 22:13:00,
2014-01-12 17:19:00,43.7,-3.9,29.62,North,0,0.0,0.0,13,0.00,,---,0.00,VWS V14.01,2014-01-12 22:19:00,
2014-01-12 17:24:00,43.7,-3.9,29.62,North,0,0.0,0.0,13,0.00,,---,0.00,VWS V14.01,2014-01-12 22:24:00,
2014-01-12 17:29:00,43.5,-4.1,29.62,North,0,0.0,0.0,13,0.00,,---,0.00,VWS V14.01,2014-01-12 22:29:00,
2014-01-12 17:34:00,43.3,-4.2,29.62,North,0,0.0,0.0,13,0.00,,---,0.00,VWS V14.01,2014-01-12 22:34:00,
2014-01-12 17:39:00,43.2,-4.3,29.62,North,0,0.0,0.0,13,0.00,,---,0.00,VWS V14.01,2014-01-12 22:39:00,
2014-01-12 17:45:00,43.0,-4.5,29.62,North,0,0.0,0.0,13,0.00,,---,0.00,VWS V14.01,2014-01-12 22:45:00,
2014-01-12 17:50:00,42.8,-4.6,29.62,North,0,0.0,0.0,13,0.00,,---,0.00,VWS V14.01,2014-01-12 22:50:00,
2014-01-12 17:56:00,42.6,-4.8,29.62,North,0,0.0,0.0,13,0.00,,---,0.00,VWS V14.01,2014-01-12 22:56:00,
2014-01-12 18:01:00,42.4,-4.9,29.62,North,0,0.0,0.0,13,0.00,,---,0.00,VWS V14.01,2014-01-12 23:01:00,
2014-01-12 18:06:00,42.1,-5.2,29.65,North,0,0.0,0.0,13,0.00,,---,0.00,VWS V14.01,2014-01-12 23:06:00,
2014-01-12 18:11:00,41.7,-5.5,29.65,North,0,0.0,0.0,13,0.00,,---,0.00,VWS V14.01,2014-01-12 23:11:00,
2014-01-12 18:16:00,41.4,-5.8,29.65,North,0,0.0,0.0,13,0.00,,---,0.00,VWS V14.01,2014-01-12 23:16:00,
2014-01-12 18:22:00,40.6,-6.4,29.65,North,0,0.0,0.0,13,0.00,,---,0.00,VWS V14.01,2014-01-12 23:22:00,
2014-01-12 18:28:00,40.3,-6.7,29.65,North,0,0.0,0.0,13,0.00,,---,0.00,VWS V14.01,2014-01-12 23:28:00,
2014-01-12 18:33:00,39.9,-6.9,29.65,North,0,0.0,0.0,13,0.00,,---,0.00,VWS V14.01,2014-01-12 23:33:00,
2014-01-12 18:39:00,39.7,-7.1,29.65,North,0,0.0,0.0,13,0.00,,---,0.00,VWS V14.01,2014-01-12 23:39:00,
2014-01-12 18:44:00,39.4,-7.4,29.65,North,0,0.0,0.0,13,0.00,,---,0.00,VWS V14.01,2014-01-12 23:44:00,
2014-01-12 18:50:00,38.8,-6.3,29.65,North,0,0.0,0.0,14,0.00,,---,0.00,VWS V14.01,2014-01-12 23:50:00,
2014-01-12 18:55:00,38.7,-6.4,29.65,North,0,0.0,0.0,14,0.00,,---,0.00,VWS V14.01,2014-01-12 23:55:00,
2014-01-12 19:00:00,38.5,-6.6,29.65,North,0,0.0,0.0,14,0.00,,---,0.00,VWS V14.01,2014-01-13 00:00:00,
2014-01-12 19:06:00,38.1,-6.9,29.65,North,0,0.0,0.0,14,0.00,,---,0.00,VWS V14.01,2014-01-13 00:06:00,
2014-01-12 19:11:00,37.9,-7.0,29.65,North,0,0.0,0.0,14,0.00,,---,0.00,VWS V14.01,2014-01-13 00:11:00,
2014-01-12 19:17:00,37.8,-7.2,29.65,North,0,0.0,0.0,14,0.00,,---,0.00,VWS V14.01,2014-01-13 00:17:00,
2014-01-12 19:22:00,37.6,-7.3,29.68,North,0,0.0,0.0,14,0.00,,---,0.00,VWS V14.01,2014-01-13 00:22:00,
2014-01-12 19:27:00,37.6,-7.3,29.68,North,0,0.0,0.0,14,0.00,,---,0.00,VWS V14.01,2014-01-13 00:27:00,
2014-01-12 19:33:00,37.0,-7.7,29.68,North,0,0.0,0.0,14,0.00,,---,0.00,VWS V14.01,2014-01-13 00:33:00,
2014-01-12 19:38:00,36.7,-8.0,29.68,North,0,0.0,0.0,14,0.00,,---,0.00,VWS V14.01,2014-01-13 00:38:00,
2014-01-12 19:44:00,36.5,-8.2,29.68,North,0,0.0,0.0,14,0.00,,---,0.00,VWS V14.01,2014-01-13 00:44:00,
2014-01-12 19:49:00,36.3,-8.3,29.68,North,0,0.0,0.0,14,0.00,,---,0.00,VWS V14.01,2014-01-13 00:49:00,
2014-01-12 19:55:00,36.0,-8.6,29.68,North,0,0.0,0.0,14,0.00,,---,0.00,VWS V14.01,2014-01-13 00:55:00,
2014-01-12 20:00:00,35.8,-8.7,29.68,North,0,0.0,0.0,14,0.00,,---,0.00,VWS V14.01,2014-01-13 01:00:00,
2014-01-12 20:05:00,35.6,-8.9,29.68,North,0,0.0,0.0,14,0.00,,---,0.00,VWS V14.01,2014-01-13 01:05:00,
2014-01-12 20:11:00,35.8,-8.7,29.68,North,0,0.0,0.0,14,0.00,,---,0.00,VWS V14.01,2014-01-13 01:11:00,
2014-01-12 20:16:00,35.4,-7.6,29.68,North,0,0.0,0.0,15,0.00,,---,0.00,VWS V14.01,2014-01-13 01:16:00,
2014-01-12 20:22:00,35.1,-7.9,29.68,North,0,0.0,0.0,15,0.00,,---,0.00,VWS V14.01,2014-01-13 01:22:00,
2014-01-12 20:27:00,34.7,-8.2,29.68,North,0,0.0,0.0,15,0.00,,---,0.00,VWS V14.01,2014-01-13 01:27:00,
2014-01-12 20:32:00,34.5,-8.4,29.68,North,0,0.0,0.0,15,0.00,,---,0.00,VWS V14.01,2014-01-13 01:32:00,
2014-01-12 20:37:00,34.5,-8.4,29.68,North,0,0.0,0.0,15,0.00,,---,0.00,VWS V14.01,2014-01-13 01:37:00,
2014-01-12 20:43:00,34.5,-8.4,29.68,North,0,0.0,0.0,15,0.00,,---,0.00,VWS V14.01,2014-01-13 01:43:00,
2014-01-12 20:49:00,34.5,-8.4,29.68,North,0,0.0,0.0,15,0.00,,---,0.00,VWS V14.01,2014-01-13 01:49:00,
2014-01-12 20:54:00,34.3,-8.5,29.68,North,0,0.0,0.0,15,0.00,,---,0.00,VWS V14.01,2014-01-13 01:54:00,
2014-01-12 20:59:00,34.0,-8.8,29.68,North,0,0.0,0.0,15,0.00,,---,0.00,VWS V14.01,2014-01-13 01:59:00,
2014-01-12 21:04:00,33.8,-8.9,29.68,North,0,0.0,0.0,15,0.00,,---,0.00,VWS V14.01,2014-01-13 02:04:00,
2014-01-12 21:09:00,33.6,-9.1,29.68,North,0,0.0,0.0,15,0.00,,---,0.00,VWS V14.01,2014-01-13 02:09:00,
2014-01-12 21:15:00,33.4,-9.2,29.68,North,0,0.0,0.0,15,0.00,,---,0.00,VWS V14.01,2014-01-13 02:15:00,
2014-01-12 21:21:00,33.4,-9.2,29.68,North,0,0.0,0.0,15,0.00,,---,0.00,VWS V14.01,2014-01-13 02:21:00,
2014-01-12 21:26:00,33.4,-9.2,29.68,North,0,0.0,0.0,15,0.00,,---,0.00,VWS V14.01,2014-01-13 02:26:00,
2014-01-12 21:31:00,33.3,-9.4,29.68,North,0,0.0,0.0,15,0.00,,---,0.00,VWS V14.01,2014-01-13 02:31:00,
2014-01-12 21:37:00,32.9,-9.7,29.68,North,0,0.0,0.0,15,0.00,,---,0.00,VWS V14.01,2014-01-13 02:37:00,
2014-01-12 21:42:00,32.7,-9.8,29.68,North,0,0.0,0.0,15,0.00,,---,0.00,VWS V14.01,2014-01-13 02:42:00,
2014-01-12 21:47:00,32.5,-10.0,29.68,North,0,0.0,0.0,15,0.00,,---,0.00,VWS V14.01,2014-01-13 02:47:00,
2014-01-12 21:52:00,32.5,-6.2,29.68,North,0,0.0,0.0,18,0.00,,---,0.00,VWS V14.01,2014-01-13 02:52:00,
2014-01-12 21:57:00,32.4,-6.4,29.68,North,0,0.0,0.0,18,0.00,,---,0.00,VWS V14.01,2014-01-13 02:57:00,
2014-01-12 22:03:00,32.2,-4.4,29.68,North,0,0.0,0.0,20,0.00,,---,0.00,VWS V14.01,2014-01-13 03:03:00,
2014-01-12 22:08:00,32.2,-4.4,29.68,North,0,0.0,0.0,20,0.00,,---,0.00,VWS V14.01,2014-01-13 03:08:00,
2014-01-12 22:13:00,32.2,-4.4,29.68,North,0,0.0,0.0,20,0.00,,---,0.00,VWS V14.01,2014-01-13 03:13:00,
2014-01-12 22:19:00,32.0,-4.5,29.68,North,0,0.0,0.0,20,0.00,,---,0.00,VWS V14.01,2014-01-13 03:19:00,
2014-01-12 22:24:00,32.2,-1.4,29.68,North,0,0.0,0.0,23,0.00,,---,0.00,VWS V14.01,2014-01-13 03:24:00,
2014-01-12 22:30:00,32.4,-1.3,29.68,North,0,0.0,0.0,23,0.00,,---,0.00,VWS V14.01,2014-01-13 03:30:00,
2014-01-12 22:35:00,32.5,-1.1,29.68,North,0,0.0,0.0,23,0.00,,---,0.00,VWS V14.01,2014-01-13 03:35:00,
2014-01-12 22:40:00,32.5,-1.1,29.71,North,0,0.0,0.0,23,0.00,,---,0.00,VWS V14.01,2014-01-13 03:40:00,
2014-01-12 22:46:00,32.5,-1.1,29.71,North,0,0.0,0.0,23,0.00,,---,0.00,VWS V14.01,2014-01-13 03:46:00,
2014-01-12 22:51:00,32.7,-1.0,29.71,North,0,0.0,0.0,23,0.00,,---,0.00,VWS V14.01,2014-01-13 03:51:00,
2014-01-12 22:57:00,32.9,0.9,29.71,North,0,0.0,0.0,25,0.00,,---,0.00,VWS V14.01,2014-01-13 03:57:00,
2014-01-12 23:02:00,32.7,-1.0,29.71,North,0,0.0,0.0,23,0.00,,---,0.00,VWS V14.01,2014-01-13 04:02:00,
2014-01-12 23:09:00,32.5,-1.1,29.71,North,0,0.0,0.0,23,0.00,,---,0.00,VWS V14.01,2014-01-13 04:09:00,
2014-01-12 23:14:00,32.0,-4.5,29.71,North,0,0.0,0.0,20,0.00,,---,0.00,VWS V14.01,2014-01-13 04:14:00,
2014-01-12 23:20:00,31.6,-1.9,29.71,North,0,0.0,0.0,23,0.00,,---,0.00,VWS V14.01,2014-01-13 04:20:00,
2014-01-12 23:26:00,31.5,-2.0,29.71,North,0,0.0,0.0,23,0.00,,---,0.00,VWS V14.01,2014-01-13 04:26:00,
2014-01-12 23:32:00,31.5,-0.3,29.71,North,0,0.0,0.0,25,0.00,,---,0.00,VWS V14.01,2014-01-13 04:32:00,
2014-01-12 23:38:00,31.5,-0.3,29.71,North,0,0.0,0.0,25,0.00,,---,0.00,VWS V14.01,2014-01-13 04:38:00,
2014-01-12 23:43:00,31.5,2.1,29.71,North,0,0.0,0.0,28,0.00,,---,0.00,VWS V14.01,2014-01-13 04:43:00,
2014-01-12 23:48:00,31.3,2.0,29.71,North,0,0.0,0.0,28,0.00,,---,0.00,VWS V14.01,2014-01-13 04:48:00,
2014-01-12 23:53:00,31.3,3.5,29.71,North,0,0.0,0.0,30,0.00,,---,0.00,VWS V14.01,2014-01-13 04:53:00,
2014-01-12 23:58:00,31.3,3.5,29.71,North,0,0.0,0.0,30,0.00,,---,0.00,VWS V14.01,2014-01-13 04:58:00,